Year,Month,Day,Hour,Minute,Value (Times are PST for temperature in C)
2021,04,15,00,00,6.60
2021,04,15,00,01,6.50
2021,04,15,00,02,6.50
2021,04,15,00,03,6.50
2021,04,15,00,04,6.40
2021,04,15,00,05,6.40
2021,04,15,00,06,6.40
2021,04,15,00,07,6.40
2021,04,15,00,08,6.40
2021,04,15,00,09,6.30
2021,04,15,00,10,6.30
2021,04,15,00,11,6.30
2021,04,15,00,12,6.20
2021,04,15,00,13,6.20
2021,04,15,00,14,6.20
2021,04,15,00,15,6.20
2021,04,15,00,16,6.20
2021,04,15,00,17,6.20
2021,04,15,00,18,6.20
2021,04,15,00,19,6.20
2021,04,15,00,20,6.20
2021,04,15,00,21,6.20
2021,04,15,00,22,6.20
2021,04,15,00,23,6.10
2021,04,15,00,24,6.10
2021,04,15,00,25,6.10
2021,04,15,00,26,6.10
2021,04,15,00,27,6.10
2021,04,15,00,28,6.10
2021,04,15,00,29,6.10
2021,04,15,00,30,6.10
2021,04,15,00,31,6.10
2021,04,15,00,32,6.10
2021,04,15,00,33,6.10
2021,04,15,00,34,6.10
2021,04,15,00,35,6.10
2021,04,15,00,36,6.10
2021,04,15,00,37,6.00
2021,04,15,00,38,6.00
2021,04,15,00,39,6.00
2021,04,15,00,40,5.90
2021,04,15,00,41,5.90
2021,04,15,00,42,5.90
2021,04,15,00,43,5.90
2021,04,15,00,44,5.90
2021,04,15,00,45,5.90
2021,04,15,00,46,5.90
2021,04,15,00,47,5.80
2021,04,15,00,48,5.80
2021,04,15,00,49,5.80
2021,04,15,00,50,5.80
2021,04,15,00,51,5.80
2021,04,15,00,52,5.80
2021,04,15,00,53,5.70
2021,04,15,00,54,5.70
2021,04,15,00,55,5.70
2021,04,15,00,56,5.70
2021,04,15,00,57,5.70
2021,04,15,00,58,5.80
2021,04,15,00,59,5.80
2021,04,15,01,00,5.80
2021,04,15,01,01,5.80
2021,04,15,01,02,5.80
2021,04,15,01,03,5.80
2021,04,15,01,04,5.80
2021,04,15,01,05,5.70
2021,04,15,01,06,5.70
2021,04,15,01,07,5.70
2021,04,15,01,08,5.70
2021,04,15,01,09,5.60
2021,04,15,01,10,5.60
2021,04,15,01,11,5.60
2021,04,15,01,12,5.60
2021,04,15,01,13,5.50
2021,04,15,01,14,5.50
2021,04,15,01,15,5.50
2021,04,15,01,16,5.50
2021,04,15,01,17,5.50
2021,04,15,01,18,5.50
2021,04,15,01,19,5.40
2021,04,15,01,20,5.40
2021,04,15,01,21,5.40
2021,04,15,01,22,5.30
2021,04,15,01,23,5.30
2021,04,15,01,24,5.30
2021,04,15,01,25,5.20
2021,04,15,01,26,5.20
2021,04,15,01,27,5.20
2021,04,15,01,28,5.20
2021,04,15,01,29,5.20
2021,04,15,01,30,5.20
2021,04,15,01,31,5.20
2021,04,15,01,32,5.20
2021,04,15,01,33,5.20
2021,04,15,01,34,5.20
2021,04,15,01,35,5.20
2021,04,15,01,36,5.20
2021,04,15,01,37,5.10
2021,04,15,01,38,5.10
2021,04,15,01,39,5.10
2021,04,15,01,40,5.00
2021,04,15,01,41,5.00
2021,04,15,01,42,4.90
2021,04,15,01,43,4.90
2021,04,15,01,44,4.90
2021,04,15,01,45,4.90
2021,04,15,01,46,4.80
2021,04,15,01,47,4.80
2021,04,15,01,48,4.80
2021,04,15,01,49,4.80
2021,04,15,01,50,4.80
2021,04,15,01,51,4.80
2021,04,15,01,52,4.80
2021,04,15,01,53,4.80
2021,04,15,01,54,4.80
2021,04,15,01,55,4.80
2021,04,15,01,56,4.80
2021,04,15,01,57,4.80
2021,04,15,01,58,4.80
2021,04,15,01,59,4.80
2021,04,15,02,00,4.70
2021,04,15,02,01,4.70
2021,04,15,02,02,4.70
2021,04,15,02,03,4.70
2021,04,15,02,04,4.60
2021,04,15,02,05,4.60
2021,04,15,02,06,4.60
2021,04,15,02,07,4.50
2021,04,15,02,08,4.50
2021,04,15,02,09,4.50
2021,04,15,02,10,4.50
2021,04,15,02,11,4.40
2021,04,15,02,12,4.40
2021,04,15,02,13,4.40
2021,04,15,02,14,4.40
2021,04,15,02,15,4.40
2021,04,15,02,16,4.40
2021,04,15,02,17,4.40
2021,04,15,02,18,4.40
2021,04,15,02,19,4.40
2021,04,15,02,20,4.40
2021,04,15,02,21,4.40
2021,04,15,02,22,4.40
2021,04,15,02,23,4.40
2021,04,15,02,24,4.40
2021,04,15,02,25,4.40
2021,04,15,02,26,4.40
2021,04,15,02,27,4.40
2021,04,15,02,28,4.40
2021,04,15,02,29,4.40
2021,04,15,02,30,4.50
2021,04,15,02,31,4.50
2021,04,15,02,32,4.50
2021,04,15,02,33,4.60
2021,04,15,02,34,4.60
2021,04,15,02,35,4.60
2021,04,15,02,36,4.60
2021,04,15,02,37,4.50
2021,04,15,02,38,4.50
2021,04,15,02,39,4.50
2021,04,15,02,40,4.50
2021,04,15,02,41,4.50
2021,04,15,02,42,4.40
2021,04,15,02,43,4.40
2021,04,15,02,44,4.40
2021,04,15,02,45,4.40
2021,04,15,02,46,4.40
2021,04,15,02,47,4.40
2021,04,15,02,48,4.40
2021,04,15,02,49,4.40
2021,04,15,02,50,4.30
2021,04,15,02,51,4.30
2021,04,15,02,52,4.30
2021,04,15,02,53,4.20
2021,04,15,02,54,4.20
2021,04,15,02,55,4.20
2021,04,15,02,56,4.20
2021,04,15,02,57,4.10
2021,04,15,02,58,4.10
2021,04,15,02,59,4.10
2021,04,15,03,00,4.10
2021,04,15,03,01,4.00
2021,04,15,03,02,4.00
2021,04,15,03,03,3.90
2021,04,15,03,04,3.90
2021,04,15,03,05,3.90
2021,04,15,03,06,3.80
2021,04,15,03,07,3.80
2021,04,15,03,08,3.80
2021,04,15,03,09,3.80
2021,04,15,03,10,3.80
2021,04,15,03,11,3.80
2021,04,15,03,12,3.80
2021,04,15,03,13,3.90
2021,04,15,03,14,3.80
2021,04,15,03,15,3.80
2021,04,15,03,16,3.80
2021,04,15,03,17,3.80
2021,04,15,03,18,3.80
2021,04,15,03,19,3.80
2021,04,15,03,20,3.80
2021,04,15,03,21,3.80
2021,04,15,03,22,3.80
2021,04,15,03,23,3.80
2021,04,15,03,24,3.80
2021,04,15,03,25,3.70
2021,04,15,03,26,3.70
2021,04,15,03,27,3.70
2021,04,15,03,28,3.60
2021,04,15,03,29,3.60
2021,04,15,03,30,3.60
2021,04,15,03,31,3.50
2021,04,15,03,32,3.50
2021,04,15,03,33,3.40
2021,04,15,03,34,3.40
2021,04,15,03,35,3.40
2021,04,15,03,36,3.30
2021,04,15,03,37,3.30
2021,04,15,03,38,3.30
2021,04,15,03,39,3.30
2021,04,15,03,40,3.30
2021,04,15,03,41,3.30
2021,04,15,03,42,3.30
2021,04,15,03,43,3.20
2021,04,15,03,44,3.20
2021,04,15,03,45,3.20
2021,04,15,03,46,3.20
2021,04,15,03,47,3.20
2021,04,15,03,48,3.20
2021,04,15,03,49,3.20
2021,04,15,03,50,3.20
2021,04,15,03,51,3.20
2021,04,15,03,52,3.20
2021,04,15,03,53,3.20
2021,04,15,03,54,3.20
2021,04,15,03,55,3.20
2021,04,15,03,56,3.20
2021,04,15,03,57,3.20
2021,04,15,03,58,3.30
2021,04,15,03,59,3.30
2021,04,15,04,00,3.30
2021,04,15,04,01,3.30
2021,04,15,04,02,3.30
2021,04,15,04,03,3.40
2021,04,15,04,04,3.40
2021,04,15,04,05,3.40
2021,04,15,04,06,3.40
2021,04,15,04,07,3.40
2021,04,15,04,08,3.40
2021,04,15,04,09,3.30
2021,04,15,04,10,3.30
2021,04,15,04,11,3.30
2021,04,15,04,12,3.30
2021,04,15,04,13,3.30
2021,04,15,04,14,3.30
2021,04,15,04,15,3.30
2021,04,15,04,16,3.30
2021,04,15,04,17,3.30
2021,04,15,04,18,3.30
2021,04,15,04,19,3.30
2021,04,15,04,20,3.30
2021,04,15,04,21,3.30
2021,04,15,04,22,3.30
2021,04,15,04,23,3.30
2021,04,15,04,24,3.30
2021,04,15,04,25,3.40
2021,04,15,04,26,3.40
2021,04,15,04,27,3.40
2021,04,15,04,28,3.40
2021,04,15,04,29,3.40
2021,04,15,04,30,3.40
2021,04,15,04,31,3.40
2021,04,15,04,32,3.40
2021,04,15,04,33,3.30
2021,04,15,04,34,3.30
2021,04,15,04,35,3.30
2021,04,15,04,36,3.30
2021,04,15,04,37,3.30
2021,04,15,04,38,3.30
2021,04,15,04,39,3.30
2021,04,15,04,40,3.30
2021,04,15,04,41,3.30
2021,04,15,04,42,3.30
2021,04,15,04,43,3.30
2021,04,15,04,44,3.30
2021,04,15,04,45,3.30
2021,04,15,04,46,3.30
2021,04,15,04,47,3.30
2021,04,15,04,48,3.30
2021,04,15,04,49,3.20
2021,04,15,04,50,3.20
2021,04,15,04,51,3.20
2021,04,15,04,52,3.20
2021,04,15,04,53,3.20
2021,04,15,04,54,3.20
2021,04,15,04,55,3.10
2021,04,15,04,56,3.10
2021,04,15,04,57,3.10
2021,04,15,04,58,3.10
2021,04,15,04,59,3.10
2021,04,15,05,00,3.10
2021,04,15,05,01,3.00
2021,04,15,05,02,3.00
2021,04,15,05,03,3.00
2021,04,15,05,04,2.90
2021,04,15,05,05,2.90
2021,04,15,05,06,2.80
2021,04,15,05,07,2.80
2021,04,15,05,08,2.80
2021,04,15,05,09,2.80
2021,04,15,05,10,2.80
2021,04,15,05,11,2.80
2021,04,15,05,12,2.70
2021,04,15,05,13,2.70
2021,04,15,05,14,2.70
2021,04,15,05,15,2.70
2021,04,15,05,16,2.70
2021,04,15,05,17,2.70
2021,04,15,05,18,2.70
2021,04,15,05,19,2.70
2021,04,15,05,20,2.70
2021,04,15,05,21,2.70
2021,04,15,05,22,2.70
2021,04,15,05,23,2.70
2021,04,15,05,24,2.70
2021,04,15,05,25,2.70
2021,04,15,05,26,2.70
2021,04,15,05,27,2.80
2021,04,15,05,28,2.80
2021,04,15,05,29,2.80
2021,04,15,05,30,2.80
2021,04,15,05,31,2.70
2021,04,15,05,32,2.70
2021,04,15,05,33,2.70
2021,04,15,05,34,2.70
2021,04,15,05,35,2.70
2021,04,15,05,36,2.70
2021,04,15,05,37,2.70
2021,04,15,05,38,2.70
2021,04,15,05,39,2.60
2021,04,15,05,40,2.60
2021,04,15,05,41,2.60
2021,04,15,05,42,2.60
2021,04,15,05,43,2.60
2021,04,15,05,44,2.60
2021,04,15,05,45,2.60
2021,04,15,05,46,2.60
2021,04,15,05,47,2.60
2021,04,15,05,48,2.60
2021,04,15,05,49,2.60
2021,04,15,05,50,2.60
2021,04,15,05,51,2.60
2021,04,15,05,52,2.60
2021,04,15,05,53,2.60
2021,04,15,05,54,2.60
2021,04,15,05,55,2.50
2021,04,15,05,56,2.50
2021,04,15,05,57,2.50
2021,04,15,05,58,2.50
2021,04,15,05,59,2.50
2021,04,15,06,00,2.50
2021,04,15,06,01,2.50
2021,04,15,06,02,2.50
2021,04,15,06,03,2.50
2021,04,15,06,04,2.50
2021,04,15,06,05,2.50
2021,04,15,06,06,2.50
2021,04,15,06,07,2.50
2021,04,15,06,08,2.50
2021,04,15,06,09,2.50
2021,04,15,06,10,2.50
2021,04,15,06,11,2.50
2021,04,15,06,12,2.40
2021,04,15,06,13,2.40
2021,04,15,06,14,2.40
2021,04,15,06,15,2.40
2021,04,15,06,16,2.40
2021,04,15,06,17,2.40
2021,04,15,06,18,2.40
2021,04,15,06,19,2.30
2021,04,15,06,20,2.30
2021,04,15,06,21,2.30
2021,04,15,06,22,2.30
2021,04,15,06,23,2.30
2021,04,15,06,24,2.30
2021,04,15,06,25,2.30
2021,04,15,06,26,2.20
2021,04,15,06,27,2.20
2021,04,15,06,28,2.20
2021,04,15,06,29,2.20
2021,04,15,06,30,2.20
2021,04,15,06,31,2.20
2021,04,15,06,32,2.20
2021,04,15,06,33,2.20
2021,04,15,06,34,2.10
2021,04,15,06,35,2.20
2021,04,15,06,36,2.10
2021,04,15,06,37,2.10
2021,04,15,06,38,2.20
2021,04,15,06,39,2.20
2021,04,15,06,40,2.20
2021,04,15,06,41,2.20
2021,04,15,06,42,2.20
2021,04,15,06,43,2.20
2021,04,15,06,44,2.20
2021,04,15,06,45,2.20
2021,04,15,06,46,2.20
2021,04,15,06,47,2.20
2021,04,15,06,48,2.20
2021,04,15,06,49,2.30
2021,04,15,06,50,2.30
2021,04,15,06,51,2.30
2021,04,15,06,52,2.30
2021,04,15,06,53,2.30
2021,04,15,06,54,2.30
2021,04,15,06,55,2.20
2021,04,15,06,56,2.20
2021,04,15,06,57,2.20
2021,04,15,06,58,2.20
2021,04,15,06,59,2.20
2021,04,15,07,00,2.20
2021,04,15,07,01,2.20
2021,04,15,07,02,2.20
2021,04,15,07,03,2.20
2021,04,15,07,04,2.20
2021,04,15,07,05,2.20
2021,04,15,07,06,2.20
2021,04,15,07,07,2.20
2021,04,15,07,08,2.20
2021,04,15,07,09,2.20
2021,04,15,07,10,2.20
2021,04,15,07,11,2.20
2021,04,15,07,12,2.30
2021,04,15,07,13,2.30
2021,04,15,07,14,2.30
2021,04,15,07,15,2.30
2021,04,15,07,16,2.30
2021,04,15,07,17,2.30
2021,04,15,07,18,2.30
2021,04,15,07,19,2.30
2021,04,15,07,20,2.30
2021,04,15,07,21,2.40
2021,04,15,07,22,2.40
2021,04,15,07,23,2.40
2021,04,15,07,24,2.40
2021,04,15,07,25,2.50
2021,04,15,07,26,2.50
2021,04,15,07,27,2.60
2021,04,15,07,28,2.60
2021,04,15,07,29,2.60
2021,04,15,07,30,2.70
2021,04,15,07,31,2.70
2021,04,15,07,32,2.70
2021,04,15,07,33,2.70
2021,04,15,07,34,2.70
2021,04,15,07,35,2.70
2021,04,15,07,36,2.70
2021,04,15,07,37,2.70
2021,04,15,07,38,2.70
2021,04,15,07,39,2.70
2021,04,15,07,40,2.70
2021,04,15,07,41,2.60
2021,04,15,07,42,2.70
2021,04,15,07,43,2.70
2021,04,15,07,44,2.70
2021,04,15,07,45,2.70
2021,04,15,07,46,2.70
2021,04,15,07,47,2.80
2021,04,15,07,48,2.80
2021,04,15,07,49,2.80
2021,04,15,07,50,2.80
2021,04,15,07,51,2.90
2021,04,15,07,52,2.90
2021,04,15,07,53,3.00
2021,04,15,07,54,3.00
2021,04,15,07,55,3.10
2021,04,15,07,56,3.10
2021,04,15,07,57,3.20
2021,04,15,07,58,3.20
2021,04,15,07,59,3.30
2021,04,15,08,00,3.30
2021,04,15,08,01,3.40
2021,04,15,08,02,3.40
2021,04,15,08,03,3.40
2021,04,15,08,04,3.40
2021,04,15,08,05,3.50
2021,04,15,08,06,3.50
2021,04,15,08,07,3.60
2021,04,15,08,08,3.60
2021,04,15,08,09,3.70
2021,04,15,08,10,3.70
2021,04,15,08,11,3.70
2021,04,15,08,12,3.80
2021,04,15,08,13,3.80
2021,04,15,08,14,3.80
2021,04,15,08,15,3.80
2021,04,15,08,16,3.90
2021,04,15,08,17,3.90
2021,04,15,08,18,4.00
2021,04,15,08,19,4.00
2021,04,15,08,20,4.10
2021,04,15,08,21,4.10
2021,04,15,08,22,4.10
2021,04,15,08,23,4.20
2021,04,15,08,24,4.20
2021,04,15,08,25,4.30
2021,04,15,08,26,4.30
2021,04,15,08,27,4.40
2021,04,15,08,28,4.40
2021,04,15,08,29,4.50
2021,04,15,08,30,4.60
2021,04,15,08,31,4.70
2021,04,15,08,32,4.70
2021,04,15,08,33,4.80
2021,04,15,08,34,4.80
2021,04,15,08,35,4.90
2021,04,15,08,36,5.00
2021,04,15,08,37,5.10
2021,04,15,08,38,5.20
2021,04,15,08,39,5.30
2021,04,15,08,40,5.30
2021,04,15,08,41,5.40
2021,04,15,08,42,5.50
2021,04,15,08,43,5.60
2021,04,15,08,44,5.60
2021,04,15,08,45,5.60
2021,04,15,08,46,5.60
2021,04,15,08,47,5.70
2021,04,15,08,48,5.70
2021,04,15,08,49,5.70
2021,04,15,08,50,5.70
2021,04,15,08,51,5.80
2021,04,15,08,52,5.80
2021,04,15,08,53,5.80
2021,04,15,08,54,5.90
2021,04,15,08,55,6.00
2021,04,15,08,56,6.00
2021,04,15,08,57,6.10
2021,04,15,08,58,6.20
2021,04,15,08,59,6.30
2021,04,15,09,00,6.30
2021,04,15,09,01,6.40
2021,04,15,09,02,6.50
2021,04,15,09,03,6.50
2021,04,15,09,04,6.60
2021,04,15,09,05,6.60
2021,04,15,09,06,6.70
2021,04,15,09,07,6.80
2021,04,15,09,08,6.90
2021,04,15,09,09,7.00
2021,04,15,09,10,7.10
2021,04,15,09,11,7.20
2021,04,15,09,12,7.20
2021,04,15,09,13,7.30
2021,04,15,09,14,7.30
2021,04,15,09,15,7.40
2021,04,15,09,16,7.40
2021,04,15,09,17,7.40
2021,04,15,09,18,7.50
2021,04,15,09,19,7.60
2021,04,15,09,20,7.60
2021,04,15,09,21,7.70
2021,04,15,09,22,7.80
2021,04,15,09,23,7.80
2021,04,15,09,24,7.90
2021,04,15,09,25,8.00
2021,04,15,09,26,8.00
2021,04,15,09,27,8.10
2021,04,15,09,28,8.20
2021,04,15,09,29,8.30
2021,04,15,09,30,8.30
2021,04,15,09,31,8.40
2021,04,15,09,32,8.40
2021,04,15,09,33,8.50
2021,04,15,09,34,8.50
2021,04,15,09,35,8.60
2021,04,15,09,36,8.60
2021,04,15,09,37,8.60
2021,04,15,09,38,8.70
2021,04,15,09,39,8.80
2021,04,15,09,40,8.90
2021,04,15,09,41,9.00
2021,04,15,09,42,9.00
2021,04,15,09,43,9.10
2021,04,15,09,44,9.20
2021,04,15,09,45,9.30
2021,04,15,09,46,9.30
2021,04,15,09,47,9.40
2021,04,15,09,48,9.40
2021,04,15,09,49,9.40
2021,04,15,09,50,9.50
2021,04,15,09,51,9.50
2021,04,15,09,52,9.60
2021,04,15,09,53,9.60
2021,04,15,09,54,9.70
2021,04,15,09,55,9.80
2021,04,15,09,56,9.90
2021,04,15,09,57,10.00
2021,04,15,09,58,10.10
2021,04,15,09,59,10.10
2021,04,15,10,00,10.20
2021,04,15,10,01,10.30
2021,04,15,10,02,10.40
2021,04,15,10,03,10.50
2021,04,15,10,04,10.60
2021,04,15,10,05,10.70
2021,04,15,10,06,10.70
2021,04,15,10,07,10.80
2021,04,15,10,08,10.80
2021,04,15,10,09,10.90
2021,04,15,10,10,10.90
2021,04,15,10,11,11.00
2021,04,15,10,12,11.00
2021,04,15,10,13,11.00
2021,04,15,10,14,11.00
2021,04,15,10,15,11.10
2021,04,15,10,16,11.20
2021,04,15,10,17,11.30
2021,04,15,10,18,11.30
2021,04,15,10,19,11.40
2021,04,15,10,20,11.50
2021,04,15,10,21,11.60
2021,04,15,10,22,11.70
2021,04,15,10,23,11.80
2021,04,15,10,24,11.90
2021,04,15,10,25,12.00
2021,04,15,10,26,12.00
2021,04,15,10,27,12.10
2021,04,15,10,28,12.20
2021,04,15,10,29,12.30
2021,04,15,10,30,12.40
2021,04,15,10,31,12.50
2021,04,15,10,32,12.60
2021,04,15,10,33,12.60
2021,04,15,10,34,12.70
2021,04,15,10,35,12.70
2021,04,15,10,36,12.70
2021,04,15,10,37,12.80
2021,04,15,10,38,12.90
2021,04,15,10,39,13.00
2021,04,15,10,40,13.00
2021,04,15,10,41,13.10
2021,04,15,10,42,13.20
2021,04,15,10,43,13.20
2021,04,15,10,44,13.20
2021,04,15,10,45,13.10
2021,04,15,10,46,13.00
2021,04,15,10,47,12.90
2021,04,15,10,48,12.90
2021,04,15,10,49,12.80
2021,04,15,10,50,12.80
2021,04,15,10,51,12.70
2021,04,15,10,52,12.70
2021,04,15,10,53,12.70
2021,04,15,10,54,12.70
2021,04,15,10,55,12.70
2021,04,15,10,56,12.70
2021,04,15,10,57,12.60
2021,04,15,10,58,12.60
2021,04,15,10,59,12.60
2021,04,15,11,00,12.70
2021,04,15,11,01,12.70
2021,04,15,11,02,12.70
2021,04,15,11,03,12.70
2021,04,15,11,04,12.80
2021,04,15,11,05,12.80
2021,04,15,11,06,12.80
2021,04,15,11,07,12.90
2021,04,15,11,08,12.90
2021,04,15,11,09,12.90
2021,04,15,11,10,12.90
2021,04,15,11,11,12.90
2021,04,15,11,12,12.90
2021,04,15,11,13,12.90
2021,04,15,11,14,12.90
2021,04,15,11,15,12.90
2021,04,15,11,16,13.00
2021,04,15,11,17,13.00
2021,04,15,11,18,13.00
2021,04,15,11,19,13.10
2021,04,15,11,20,13.20
2021,04,15,11,21,13.30
2021,04,15,11,22,13.30
2021,04,15,11,23,13.40
2021,04,15,11,24,13.50
2021,04,15,11,25,13.60
2021,04,15,11,26,13.70
2021,04,15,11,27,13.70
2021,04,15,11,28,13.70
2021,04,15,11,29,13.70
2021,04,15,11,30,13.70
2021,04,15,11,31,13.70
2021,04,15,11,32,13.70
2021,04,15,11,33,13.70
2021,04,15,11,34,13.80
2021,04,15,11,35,13.80
2021,04,15,11,36,13.80
2021,04,15,11,37,13.90
2021,04,15,11,38,14.00
2021,04,15,11,39,14.00
2021,04,15,11,40,14.00
2021,04,15,11,41,14.10
2021,04,15,11,42,14.10
2021,04,15,11,43,14.20
2021,04,15,11,44,14.20
2021,04,15,11,45,14.30
2021,04,15,11,46,14.40
2021,04,15,11,47,14.40
2021,04,15,11,48,14.50
2021,04,15,11,49,14.50
2021,04,15,11,50,14.50
2021,04,15,11,51,14.50
2021,04,15,11,52,14.40
2021,04,15,11,53,14.40
2021,04,15,11,54,14.40
2021,04,15,11,55,14.40
2021,04,15,11,56,14.40
2021,04,15,11,57,14.30
2021,04,15,11,58,14.30
2021,04,15,11,59,14.40
2021,04,15,12,00,14.40
2021,04,15,12,01,14.40
2021,04,15,12,02,14.50
2021,04,15,12,03,14.50
2021,04,15,12,04,14.50
2021,04,15,12,05,14.60
2021,04,15,12,06,14.60
2021,04,15,12,07,14.70
2021,04,15,12,08,14.70
2021,04,15,12,09,14.70
2021,04,15,12,10,14.80
2021,04,15,12,11,14.80
2021,04,15,12,12,14.90
2021,04,15,12,13,14.90
2021,04,15,12,14,15.00
2021,04,15,12,15,15.10
2021,04,15,12,16,15.10
2021,04,15,12,17,15.20
2021,04,15,12,18,15.20
2021,04,15,12,19,15.30
2021,04,15,12,20,15.40
2021,04,15,12,21,15.50
2021,04,15,12,22,15.60
2021,04,15,12,23,15.70
2021,04,15,12,24,15.70
2021,04,15,12,25,15.80
2021,04,15,12,26,15.80
2021,04,15,12,27,15.80
2021,04,15,12,28,15.80
2021,04,15,12,29,15.80
2021,04,15,12,30,15.80
2021,04,15,12,31,15.80
2021,04,15,12,32,15.80
2021,04,15,12,33,15.80
2021,04,15,12,34,15.80
2021,04,15,12,35,15.80
2021,04,15,12,36,15.80
2021,04,15,12,37,15.90
2021,04,15,12,38,15.90
2021,04,15,12,39,16.00
2021,04,15,12,40,16.10
2021,04,15,12,41,16.30
2021,04,15,12,42,16.40
2021,04,15,12,43,16.50
2021,04,15,12,44,16.50
2021,04,15,12,45,16.60
2021,04,15,12,46,16.70
2021,04,15,12,47,16.80
2021,04,15,12,48,16.80
2021,04,15,12,49,16.90
2021,04,15,12,50,16.90
2021,04,15,12,51,17.00
2021,04,15,12,52,17.00
2021,04,15,12,53,17.00
2021,04,15,12,54,17.00
2021,04,15,12,55,17.00
2021,04,15,12,56,17.00
2021,04,15,12,57,17.00
2021,04,15,12,58,17.00
2021,04,15,12,59,17.00
2021,04,15,13,00,17.00
2021,04,15,13,01,17.10
2021,04,15,13,02,17.00
2021,04,15,13,03,16.90
2021,04,15,13,04,16.80
2021,04,15,13,05,16.70
2021,04,15,13,06,16.70
2021,04,15,13,07,16.70
2021,04,15,13,08,16.70
2021,04,15,13,09,16.70
2021,04,15,13,10,16.70
2021,04,15,13,11,16.70
2021,04,15,13,12,16.70
2021,04,15,13,13,16.70
2021,04,15,13,14,16.70
2021,04,15,13,15,16.70
2021,04,15,13,16,16.80
2021,04,15,13,17,16.80
2021,04,15,13,18,16.80
2021,04,15,13,19,16.90
2021,04,15,13,20,16.90
2021,04,15,13,21,17.00
2021,04,15,13,22,17.10
2021,04,15,13,23,17.30
2021,04,15,13,24,17.40
2021,04,15,13,25,17.50
2021,04,15,13,26,17.50
2021,04,15,13,27,17.60
2021,04,15,13,28,17.70
2021,04,15,13,29,17.80
2021,04,15,13,30,17.90
2021,04,15,13,31,18.00
2021,04,15,13,32,18.00
2021,04,15,13,33,18.10
2021,04,15,13,34,18.20
2021,04,15,13,35,18.20
2021,04,15,13,36,18.30
2021,04,15,13,37,18.40
2021,04,15,13,38,18.50
2021,04,15,13,39,18.70
2021,04,15,13,40,18.80
2021,04,15,13,41,18.90
2021,04,15,13,42,19.00
2021,04,15,13,43,19.10
2021,04,15,13,44,19.10
2021,04,15,13,45,19.20
2021,04,15,13,46,19.20
2021,04,15,13,47,19.30
2021,04,15,13,48,19.40
2021,04,15,13,49,19.50
2021,04,15,13,50,19.50
2021,04,15,13,51,19.60
2021,04,15,13,52,19.60
2021,04,15,13,53,19.70
2021,04,15,13,54,19.80
2021,04,15,13,55,19.80
2021,04,15,13,56,19.90
2021,04,15,13,57,19.90
2021,04,15,13,58,19.90
2021,04,15,13,59,20.00
2021,04,15,14,00,20.10
2021,04,15,14,01,20.10
2021,04,15,14,02,20.10
2021,04,15,14,03,20.10
2021,04,15,14,04,20.10
2021,04,15,14,05,20.20
2021,04,15,14,06,20.30
2021,04,15,14,07,20.40
2021,04,15,14,08,20.50
2021,04,15,14,09,20.60
2021,04,15,14,10,20.60
2021,04,15,14,11,20.60
2021,04,15,14,12,20.50
2021,04,15,14,13,20.50
2021,04,15,14,14,20.50
2021,04,15,14,15,20.50
2021,04,15,14,16,20.40
2021,04,15,14,17,20.40
2021,04,15,14,18,20.40
2021,04,15,14,19,20.40
2021,04,15,14,20,20.30
2021,04,15,14,21,20.30
2021,04,15,14,22,20.40
2021,04,15,14,23,20.40
2021,04,15,14,24,20.40
2021,04,15,14,25,20.30
2021,04,15,14,26,20.30
2021,04,15,14,27,20.30
2021,04,15,14,28,20.40
2021,04,15,14,29,20.50
2021,04,15,14,30,20.60
2021,04,15,14,31,20.70
2021,04,15,14,32,20.80
2021,04,15,14,33,20.90
2021,04,15,14,34,21.10
2021,04,15,14,35,21.10
2021,04,15,14,36,21.10
2021,04,15,14,37,21.20
2021,04,15,14,38,21.20
2021,04,15,14,39,21.30
2021,04,15,14,40,21.30
2021,04,15,14,41,21.30
2021,04,15,14,42,21.30
2021,04,15,14,43,21.30
2021,04,15,14,44,21.40
2021,04,15,14,45,21.50
2021,04,15,14,46,21.50
2021,04,15,14,47,21.60
2021,04,15,14,48,21.60
2021,04,15,14,49,21.70
2021,04,15,14,50,21.70
2021,04,15,14,51,21.80
2021,04,15,14,52,21.90
2021,04,15,14,53,22.00
2021,04,15,14,54,22.10
2021,04,15,14,55,22.00
2021,04,15,14,56,21.90
2021,04,15,14,57,21.80
2021,04,15,14,58,21.70
2021,04,15,14,59,21.60
2021,04,15,15,00,21.50
2021,04,15,15,01,21.40
2021,04,15,15,02,21.20
2021,04,15,15,03,21.20
2021,04,15,15,04,21.10
2021,04,15,15,05,21.00
2021,04,15,15,06,20.80
2021,04,15,15,07,20.70
2021,04,15,15,08,20.70
2021,04,15,15,09,20.70
2021,04,15,15,10,20.70
2021,04,15,15,11,20.70
2021,04,15,15,12,20.70
2021,04,15,15,13,20.70
2021,04,15,15,14,20.80
2021,04,15,15,15,20.80
2021,04,15,15,16,20.90
2021,04,15,15,17,20.90
2021,04,15,15,18,21.00
2021,04,15,15,19,21.10
2021,04,15,15,20,21.20
2021,04,15,15,21,21.30
2021,04,15,15,22,21.30
2021,04,15,15,23,21.40
2021,04,15,15,24,21.50
2021,04,15,15,25,21.50
2021,04,15,15,26,21.60
2021,04,15,15,27,21.60
2021,04,15,15,28,21.60
2021,04,15,15,29,21.70
2021,04,15,15,30,21.80
2021,04,15,15,31,21.80
2021,04,15,15,32,21.80
2021,04,15,15,33,21.80
2021,04,15,15,34,21.80
2021,04,15,15,35,21.80
2021,04,15,15,36,21.70
2021,04,15,15,37,21.70
2021,04,15,15,38,21.70
2021,04,15,15,39,21.60
2021,04,15,15,40,21.60
2021,04,15,15,41,21.60
2021,04,15,15,42,21.60
2021,04,15,15,43,21.60
2021,04,15,15,44,21.70
2021,04,15,15,45,21.70
2021,04,15,15,46,21.70
2021,04,15,15,47,21.70
2021,04,15,15,48,21.60
2021,04,15,15,49,21.60
2021,04,15,15,50,21.60
2021,04,15,15,51,21.50
2021,04,15,15,52,21.50
2021,04,15,15,53,21.40
2021,04,15,15,54,21.40
2021,04,15,15,55,21.40
2021,04,15,15,56,21.40
2021,04,15,15,57,21.30
2021,04,15,15,58,21.20
2021,04,15,15,59,21.10
2021,04,15,16,00,21.00
2021,04,15,16,01,20.90
2021,04,15,16,02,20.90
2021,04,15,16,03,20.90
2021,04,15,16,04,21.00
2021,04,15,16,05,21.10
2021,04,15,16,06,21.20
2021,04,15,16,07,21.30
2021,04,15,16,08,21.40
2021,04,15,16,09,21.50
2021,04,15,16,10,21.60
2021,04,15,16,11,21.70
2021,04,15,16,12,21.80
2021,04,15,16,13,21.90
2021,04,15,16,14,22.00
2021,04,15,16,15,22.00
2021,04,15,16,16,22.00
2021,04,15,16,17,22.00
2021,04,15,16,18,21.90
2021,04,15,16,19,21.90
2021,04,15,16,20,22.00
2021,04,15,16,21,22.00
2021,04,15,16,22,22.00
2021,04,15,16,23,22.00
2021,04,15,16,24,21.90
2021,04,15,16,25,21.90
2021,04,15,16,26,21.90
2021,04,15,16,27,21.90
2021,04,15,16,28,21.80
2021,04,15,16,29,21.90
2021,04,15,16,30,21.90
2021,04,15,16,31,22.00
2021,04,15,16,32,22.10
2021,04,15,16,33,22.10
2021,04,15,16,34,22.10
2021,04,15,16,35,22.20
2021,04,15,16,36,22.30
2021,04,15,16,37,22.30
2021,04,15,16,38,22.40
2021,04,15,16,39,22.40
2021,04,15,16,40,22.50
2021,04,15,16,41,22.60
2021,04,15,16,42,22.60
2021,04,15,16,43,22.70
2021,04,15,16,44,22.70
2021,04,15,16,45,22.80
2021,04,15,16,46,22.80
2021,04,15,16,47,22.80
2021,04,15,16,48,22.80
2021,04,15,16,49,22.90
2021,04,15,16,50,23.00
2021,04,15,16,51,23.10
2021,04,15,16,52,23.10
2021,04,15,16,53,23.00
2021,04,15,16,54,22.90
2021,04,15,16,55,22.80
2021,04,15,16,56,22.70
2021,04,15,16,57,22.50
2021,04,15,16,58,22.10
2021,04,15,16,59,21.80
2021,04,15,17,00,21.50
2021,04,15,17,01,21.30
2021,04,15,17,02,21.20
2021,04,15,17,03,21.00
2021,04,15,17,04,20.90
2021,04,15,17,05,20.90
2021,04,15,17,06,20.80
2021,04,15,17,07,20.80
2021,04,15,17,08,20.80
2021,04,15,17,09,20.70
2021,04,15,17,10,20.60
2021,04,15,17,11,20.40
2021,04,15,17,12,20.30
2021,04,15,17,13,20.30
2021,04,15,17,14,20.20
2021,04,15,17,15,20.20
2021,04,15,17,16,20.20
2021,04,15,17,17,20.20
2021,04,15,17,18,20.00
2021,04,15,17,19,19.80
2021,04,15,17,20,19.60
2021,04,15,17,21,19.40
2021,04,15,17,22,19.20
2021,04,15,17,23,19.10
2021,04,15,17,24,19.00
2021,04,15,17,25,19.00
2021,04,15,17,26,18.90
2021,04,15,17,27,18.90
2021,04,15,17,28,18.90
2021,04,15,17,29,18.90
2021,04,15,17,30,19.00
2021,04,15,17,31,19.10
2021,04,15,17,32,19.20
2021,04,15,17,33,19.30
2021,04,15,17,34,19.40
2021,04,15,17,35,19.40
2021,04,15,17,36,19.40
2021,04,15,17,37,19.40
2021,04,15,17,38,19.30
2021,04,15,17,39,19.20
2021,04,15,17,40,19.00
2021,04,15,17,41,18.90
2021,04,15,17,42,18.80
2021,04,15,17,43,18.60
2021,04,15,17,44,18.50
2021,04,15,17,45,18.30